Location: Chittendens Corners
(41.2320°N, 81.4940°W)
Time: 08:21:51
(UTC+00:00)

Cosmos 1892 - Pass Details

Date: 29 October 2020
Orbit: 504 x 523 km, 82.5° (Epoch: 28 November)

Event Time Altitude Azimuth Distance (km) Brightness Sun altitude
Rises 23:15:29 0° 359° (N) 2,664 6.2 -10.2°
Reaches altitude 10° 23:17:43 10° 6° (N) 1,772 5.3 -10.6°
Maximum altitude 23:21:26 43° 79° (ENE) 750 3.0 -11.3°
Drops below altitude 10° 23:25:07 10° 151° (SSE) 1,757 5.2 -11.9°
Sets 23:27:19 0° 158° (SSE) 2,639 6.2 -12.4°
